Regional Weather Roundup
Issued by NWS Sterling, VA

Home | Current Version | Previous Version | Text Only | Print | Product List | Glossary Off
Versions: 1 2 3 4 5 6 7 8 9 10 11 12 13 14 15 16 17 18 19 20 21 22 23 24 25 26 27 28 29 30 31 32 33 34 35 36 37 38 39 40 41 42 43 44 45 46 47 48 49 50

000
ASUS41 KLWX 281510
RWRLWX

REGIONAL WEATHER ROUNDUP
NATIONAL WEATHER SERVICE BALTIMORE MD/WASHINGTON DC
1100 AM EDT THU MAY 28 2015

Note: "FAIR" indicates few or no clouds below 12,000 feet
with no significant weather and/or obstructions to visibility.
 TC=TEMPERATURE CELSIUS

 * =Non NWS site. Station does not report precipitation (e.g. rain,
    snow, etc.), thunder, or fog.

DCZ001-MDZ009-015-VAZ040>042-051-053>054-281600-
WASHINGTON METRO

CITY           SKY/WX    TMP DP  RH WIND       PRES   REMARKS
WASHINGTON NAT CLOUDY    83  70  64 S5        30.19S
DULLES         PTSUNNY   81  68  64 VRB3      30.19F
FT BELVOIR     SUNNY     83  66  57 W6        30.19S
QUANTICO       PTSUNNY   76  69  79 S7        30.20S
COLLEGE PARK*  SUNNY     82  66  57 N5        30.18
LEESBURG*      SUNNY     81  70  69 CALM      30.21S
MANASSAS*      SUNNY     82  64  54 CALM      30.19F
GAITHERSBURG*  SUNNY     81  66  61 W6        30.23S

$$

MDZ006>007-011-014-281600-
BALTIMORE METRO

CITY           SKY/WX    TMP DP  RH WIND       PRES   REMARKS
BWI AIRPORT    PTSUNNY   83  67  58 CALM      30.18S
MD SCIENCE CTR   N/A     84  64  50 MISG      30.17F
MARTIN STATE   MOSUNNY   81  73  78 SE9       30.20R
ANNAPOLIS      PTSUNNY   73  69  87 SE8       30.19R
FORT MEADE*    MOSUNNY   81  68  65 CALM      30.21S

$$

MDZ012-015-019>023-281600-
MARYLAND EASTERN SHORE

CITY           SKY/WX    TMP DP  RH WIND       PRES   REMARKS
OCEAN CITY     PTSUNNY   75  68  78 S10       30.21S
SALISBURY      CLOUDY    76  69  79 SW8       30.21R
BAY BRIDGE AP*   N/A    N/A N/A N/A W5        30.19S
CAMBRIDGE*     PTSUNNY   77  68  73 S6        30.20R
EASTON*        MOSUNNY   81  72  74 SW3       30.23S

$$

MDZ017>025-281600-
SOUTHERN MARYLAND

CITY           SKY/WX    TMP DP  RH WIND       PRES   REMARKS
PATUXENT RIVER CLOUDY    79  68  69 SW7       30.20R
ST INIGOES     PTSUNNY   77  69  76 S7        30.20R
LEONARDTOWN*   PTSUNNY   77  68  73 SW6       30.22R

$$

MDZ003>005-281600-
NORTH CENTRAL MARYLAND

CITY           SKY/WX    TMP DP  RH WIND       PRES   REMARKS
FREDERICK*     SUNNY     84  64  51 CALM      30.21F
HAGERSTOWN APT SUNNY     81  61  50 NW8       30.20S
WESTMINSTER*   SUNNY     81  66  61 NW5       30.20S

$$

MDZ501>502-281600-
WESTERN MARYLAND

CITY           SKY/WX    TMP DP  RH WIND       PRES   REMARKS
OAKLAND*       PTSUNNY   66 N/A N/A W6        30.32R
CUMBERLAND*    SUNNY     79  63  57 S3        30.25S

$$

VAZ025>031-281600-
SHENANDOAH VALLEY

CITY           SKY/WX    TMP DP  RH WIND       PRES   REMARKS
WINCHESTER*    MOSUNNY   82  52  34 NW6       30.21S
FRONT ROYAL*   FAIR      79  64  61 CALM      30.20S
LURAY*         FAIR      84  63  48 CALM      30.22S
NEW MARKET*    FAIR      82  62  51 SE3       30.20S
STAUNTON*      SUNNY     82  62  51 CALM      30.25S
WAYNESBORO*    FAIR      77  61  57 W3        30.25S

$$

WVZ021-048>050-054>055-281600-
EASTERN WEST VIRGINIA PANHANDLE

CITY           SKY/WX    TMP DP  RH WIND       PRES   REMARKS
MARTINSBURG    SUNNY     82  62  50 NW5       30.20S
PETERSBURG*    SUNNY     80  58  46 SE3       30.23S

$$

VAZ036>039-050-281600-
CENTRAL FOOTHILLS

CITY           SKY/WX    TMP DP  RH WIND       PRES   REMARKS
CHARLOTTESVILL SUNNY     83  63  50 SE5       30.21R
CULPEPER*      SUNNY     82  66  58 NE5       30.20S
ORANGE*        SUNNY     81  68  65 CALM      30.22S
GORDONSVILLE*  FAIR      81  67  63 SE3       30.20S
WARRENTON*     FAIR      84  67  57 CALM      30.20S

$$

VAZ055>057-281600-
NORTH AND CENTRAL PIEDMONT

CITY           SKY/WX    TMP DP  RH WIND       PRES   REMARKS
FREDERICKSBRG* PTSUNNY   82  69  64 CALM      30.19S
STAFFORD*      PTSUNNY   84  64  52 CALM      30.23S

$$

NCZ024-NYZ072-PAZ021-071-VAZ022-071-281600-
OTHER REGIONAL OBSERVATIONS

CITY           SKY/WX    TMP DP  RH WIND       PRES   REMARKS
NEW YORK CITY  PTSUNNY   78  68  71 VRB5      30.19F
PHILADELPHIA   PTSUNNY   79  69  71 W8        30.18R
PITTSBURGH     CLOUDY    73  59  61 N6        30.26R
ROANOKE        PTSUNNY   80  62  54 NE8       30.26R
RICHMOND       CLOUDY    82  69  64 SW8       30.21S
RALEIGH        CLOUDY    75  69  81 S5        30.25S

$$

ANZ530>537-281600-
MARINE OBSERVATIONS

STATION/POSITION TIME  TEMP    WIND        PRES
                       AIR SEA DIR/SP/G
                 (UTC) (F)     (DEG/KT/KT) (MB)
THOMAS PT LIGHT  1500   72 70  160/  8/  9 1022.8S
BALT KEY BRIDGE  1400   76     110/  3/  4 1021.6F
COVE POINT       1400   75     240/  2/  5 1023.0F
LEWISETTA        1400   75 72              1022.4R
SOLOMONS ISLAND  1400      71                N/A
PINEY POINT      1400          190/  1/  2   N/A

$$




USA.gov is the U.S. government's official web portal to all federal, state and local government web resources and services.